Погода в Пономаревке

Россия / Оренбургская область     53°18′57″N   54°07′23″E
темп.,
°C
ветер,
м/с
пор.,
м/с
влажн.,
%
обл.,
%
осадки,
мм/ч
давл.,
гПа
погр.,
м
13 апреля, вт
вт1323:00+8св479347 0.0 1037104
02:00+7всв349462 0.0 103755
05:00+7всв338913 0.0 103726
08:00+7в468752 0.0 1038126
11:00+12юв676669 0.0 1038472
14:00+15юв674589 0.0 1037820
17:00+16юв664566 0.0 1036970
20:00+13юв58705 0.0 1035163
14 апреля, ср
ср1423:00+10юв510845 0.0 1035185
02:00+8юв36885 0.0 103599
05:00+6вюв45825 0.0 103564
08:00+6вюв487726 0.0 1034226
11:00+11юв67525 0.0 1033494
14:00+15юв67355 0.0 1031880
17:00+17юв67310 0.0 10291038
20:00+14юв44440 0.0 102840
15 апреля, чт
чт1523:00+10юв47560 0.0 102876
02:00+8вюв33673 0.0 102736
05:00+6вюв33755 0.0 102722
08:00+7вюв36730 0.0 1026135
11:00+13ююв57490 0.0 1025447
14:00+17ююв56360 0.0 1023934
17:00+18ю45310 0.0 10211271
20:00+15ююв22430 0.0 102010
16 апреля, пт
пт1623:00+12юв22481 0.0 102010
02:00+10юв225131 0.0 101810
05:00+8вюв225796 0.0 101810
08:00+9вюв1258100 0.0 101710
11:00+14вюв114291 0.0 1016298
14:00+17юз0031100 0.0 10151002
17:00+17ссз222992 0.0 10141487
20:00+15с224374 0.0 101412
17 апреля, сб
сб1723:00+13ссз33485 0.0 101319
02:00+9ссв71181100 0.0 1014418
05:00+6ссв798687 0.0 1015485
08:00+4ссв8107383 0.0 1016749
11:00+6с910555 0.0 10161145
14:00+8с10114178 0.0 10161997
17:00+6с11114695 0.0 10181992
20:00+5ссв912455 0.1 10191380